This demonstration page uses our WeatherBlox Daily Observations layout. Learn more.

Left ArrowRight Arrow

Hourly Observations for March 19, 2022

Temp ( °F °C ) Dew Point ( °F °C ) Humidity (%) Winds ( mph kmh ) Pressure ( in mb ) Visibility ( mi km ) Precip ( " mm )
12:56 am 00:56 Clear 32 0 22 -5.6 66 66 Calm 30.04 1017 10 16 0.00 0.00
1:56 am 01:56 Clear 30 -1.1 22 -5.6 72 72 Calm 30.03 1017 10 16 0.00 0.00
2:56 am 02:56 Clear 29 -1.7 22 -5.6 75 75 Calm 30.03 1017 10 16 0.00 0.00
3:56 am 03:56 Clear 27 -2.8 20 -6.7 75 75 W 3 6 30.02 1017 10 16 0.00 0.00
4:56 am 04:56 Clear 26 -3.3 19 -7.2 75 75 Calm 30.02 1017 10 16 0.00 0.00
5:56 am 05:56 Clear 25 -3.9 19 -7.2 78 78 NW 5 7 30.02 1017 10 16 0.00 0.00
6:56 am 06:56 Clear 25 -3.9 19 -7.2 78 78 WNW 5 7 30.04 1017 10 16 0.00 0.00
7:56 am 07:56 Sunny 24 -4.4 19 -7.2 81 81 WNW 3 6 30.07 1018 10 16 0.00 0.00
8:56 am 08:56 Sunny 29 -1.7 22 -5.6 75 75 WNW 5 7 30.08 1019 10 16 0.00 0.00
9:56 am 09:56 Sunny 39 3.9 27 -2.8 62 62 WNW 5 7 30.09 1019 10 16 0.00 0.00
10:56 am 10:56 Sunny 46 7.8 27 -2.8 47 47 NW 5 7 30.09 1019 10 16 0.00 0.00
11:56 am 11:56 Sunny 55 12.8 26 -3.3 33 33 VRB 3 6 30.08 1019 10 16 0.00 0.00
12:56 pm 12:56 Sunny 60 15.6 19 -7.2 20 20 VRB 3 6 30.07 1018 10 16 0.00 0.00
1:56 pm 13:56 Sunny 63 17.2 22 -5.6 21 21 N 10 17 30.05 1018 10 16 0.00 0.00
2:56 pm 14:56 Mostly Sunny 64 17.8 20 -6.7 18 18 W 9 15 30.04 1017 10 16 0.00 0.00
3:56 pm 15:56 Partly Cloudy 65 18.3 21 -6.1 19 19 NNW 10 17 30.02 1017 10 16 0.00 0.00
4:56 pm 16:56 Mostly Sunny 66 18.9 20 -6.7 17 17 W 9 15 30.02 1017 10 16 0.00 0.00
5:56 pm 17:56 Mostly Sunny 66 18.9 19 -7.2 16 16 W 14 22 30.00 1016 10 16 0.00 0.00
6:56 pm 18:56 Sunny 64 17.8 20 -6.7 18 18 W 3 6 30.01 1016 10 16 0.00 0.00
7:56 pm 19:56 Clear 56 13.3 20 -6.7 24 24 S 7 11 30.02 1017 10 16 0.00 0.00
8:56 pm 20:56 Clear 50 10 21 -6.1 32 32 SSW 7 11 30.02 1017 10 16 0.00 0.00
9:56 pm 21:56 Clear 47 8.3 21 -6.1 36 36 SSW 7 11 30.01 1016 10 16 0.00 0.00
10:56 pm 22:56 Clear 46 7.8 20 -6.7 35 35 SSW 8 13 30.01 1016 10 16 0.00 0.00
11:56 pm 23:56 Clear 45 7.2 20 -6.7 37 37 SSW 9 15 30.00 1016 10 16 0.00 0.00

Powered by AerisWeather